GSAT-29

Last updated on June 27, 2019, 3:44 a.m. UTC

1 43698U 18089A   19177.79384601  .00000092  00000-0  00000+0 0  9999
2 43698   0.0740 273.3668 0002974 159.7688 182.2938  1.00273801  2270
UTC
Height (km)
Latitude
Longitude
Inclination
Orbital Period
UTC large
Height (km)
Speed (km/s)
/
Latitude / Longitude
Inclination (degrees)
Orbital Period (minutes)
Azimuth
Elevation
Range (km)
Doppler Factor
iOS Compass Heading
iOS Angle

Next 30 passes for location: Hong Kong

Rise time Rise Azimuth (degrees) Set time Set Azimuth (degrees) Duration Max altitude (degrees)

No matching passes for this satellites